STARLINK-2134, 47407

Orbit data source: Space-Track

STARLINK-2134, 47407 is a payload satellite owned by SpaceX/Seattle (US) in LEO that was launched on Wed, 20 Jan 2021 UTC via an FALCON 9 launch vehicle from the Air Force Eastern Test Range (AFETR). Payload-class satellites include a variety of spacecraft equipped with specific instruments for various scientific and technological missions. These include communications satellites like Starlink; space stations such as the ISS; scientific satellites like the Hubble; Earth observation satellites from companies like Planet Labs, Umbra, and HawkEye 360; GPS; miniature CubeSats for education and research; and military/defense satellites.

Loading next visibility...
Identifier
47407, 2021-005BL
Orbit
LEO
Country
Flag of USUS
Related business
Manufacturer
SpaceX/Seattle
Mission
Operational Commercial Communications
Bus & Motor
STARLINK, Unknown motor
Mass
260 kg wet, ~248 kg dry
Launch date (UTC)
2021-01-20 (5 years ago)
Launch vehicle
FALCON 9
Launch site
Air Force Eastern Test Range (AFETR)
Object type
Payload
Rocket body
Debris
Shape & HBR
Box + 1 Pan, 10.1 m
Radar Cross Section
13.562 m², Large (>1 m²)

Expand to show TLE details & history
Last TLE update: 2 days ago

TLE from 2 days ago
0 STARLINK-2134
1 47407U 21005BL  26171.43966235 -.00002184  00000-0 -58647-4 0  9996
2 47407  53.1581 280.7857 0001141  83.2522 276.8609 15.31700480299099
Epoch: 2026-06-20T10:33Z
TLE epoch observation values (Epoch: 2026-06-20T10:33:06.827Z)
Latitude
-0.00002°
Longitude
-146.14702°
Altitude
471.545 km
Speed
7.632 km/s
True Right ascension
18h 43m 08s
True Declination
0° 00' 00"
Sunlit
Object was in full shadow at epoch
Visualization orbit readout
Latitude
Unknown
Longitude
Unknown
Altitude
Unknown
Speed
Unknown
Apparent Right ascension
Unknown
Apparent Declination
Unknown
Sunlit
N/A
Visualization observer readout
Local Sidereal Time
21:27:58
Azimuth
Unknown
Elevation
Unknown
Doppler factor
Unknown
Orbital elements
Apogee altitude
471.777 km
Perigee altitude
470.214 km
Semi-major axis
6,849.132 km
Eccentricity
0.00011
Inclination
53.1581°
RAAN
280.7857°
Arg. of periapsis
83.2522°
True anomaly
276.84792°
Mean anomaly
276.8609°
Eccentric anomaly
276.85441°
Mean motion
3.82904 °/min
Orbital period
94.02 mins
BSTAR
-0.000058647
Loading maneuver chart data...
Computing Atmospheric mass density...

Documentation

Showing up to 5 results
|